Regional Weather Roundup
Issued by NWS

Home | Current Version | Previous Version | Text Only | Print | Product List | Glossary Off
Versions: 1 2 3 4 5 6 7 8 9 10 11 12 13 14 15 16 17 18 19 20 21 22 23 24 25 26 27 28 29 30 31 32 33 34 35 36 37 38 39 40 41 42 43 44 45 46 47 48 49 50

915
ASUS43 KLSX 240307
RWRMO

WEATHER SUMMARY FOR MISSOURI
NATIONAL WEATHER SERVICE SPRINGFIELD MO
1000 PM CDT SAT SEP 23 2017

NOTE: "FAIR" INDICATES FEW OR NO CLOUDS BELOW 12,000 FEET WITH NO
       SIGNIFICANT WEATHER AND/OR OBSTRUCTIONS TO VISIBILITY.
       CURRENT SKY AND/OR WEATHER CONDITIONS ARE NOT AVAILABLE FOR
       CHILLICOTHE AND FARMINGTON.

MOZ001>031-035>038-043-044-053-054-240400-
...NORTHERN AND WESTERN MISSOURI...

CITY           SKY/WX    TMP DP  RH WIND       PRES   REMARKS
KANSAS CTY INT CLEAR     75  68  78 SE6       29.96S
KANSAS C DTWN  CLEAR     82  69  64 SE6       29.95S
LEE`S SUMMIT   CLEAR     78  69  73 SE6       29.97F
ST JOSEPH      CLEAR     70  68  93 SW3       29.95S
CHILLICOTHE      N/A     73  69  87 CALM      29.98S
KIRKSVILLE     CLEAR     74  64  71 SE7       30.01R

$$
MOZ066>068-077>081-088>096-101>105-240400-
...SOUTHWEST MISSOURI...

CITY           SKY/WX    TMP DP  RH WIND       PRES   REMARKS
SPRINGFIELD    CLEAR     75  64  68 SE7       29.99S
JOPLIN         CLEAR     73  66  78 E5        29.96S
BRANSON        CLEAR     75  63  64 CALM      30.02R

$$
MOZ032>034-039>042-045>050-055>058-069>072-240400-
...CENTRAL MISSOURI...

CITY           SKY/WX    TMP DP  RH WIND       PRES   REMARKS
COLUMBIA       MOCLDY    79  64  60 E6        30.00R
JEFFERSON CITY CLEAR     76  67  73 SE5       29.98R
ROLLA          CLEAR     75  63  66 SE7       30.02R
SEDALIA        CLEAR     77  69  76 SE3       30.00R
WHITEMAN AFB   CLEAR     75  75 100 SE5       29.97S
WARRENSBURG    CLEAR     73  68  83 CALM      29.97S
OSAGE BEACH    CLEAR     73  69  87 CALM      30.00R

$$
MOZ051-052-059>065-240400-
...EAST CENTRAL MISSOURI...

CITY           SKY/WX    TMP DP  RH WIND       PRES   REMARKS
ST LOUIS INTL  PTCLDY    80  64  58 SE7       30.01S
SPIRIT OF STL  CLEAR     71  68  90 W3        29.99S
ST CHARLES     CLEAR     73  65  75 E6        29.99S

$$
MOZ072>076-082>087-097>100-106>115-240400-
...SOUTH CENTRAL AND SOUTHEAST MISSOURI...

CITY           SKY/WX    TMP DP  RH WIND       PRES   REMARKS
CAPE GIRARDEAU CLEAR     73  68  84 CALM      29.99S
FARMINGTON     CLEAR     71  64  78 CALM      30.03S
POPLAR BLUFF   CLEAR     72  67  84 N3        29.98R
WEST PLAINS    CLEAR     71  63  75 CALM      30.03R

$$



USA.gov is the U.S. government's official web portal to all federal, state and local government web resources and services.